This is the latest recevied weather packets stored in our database for station/object K6MBY. If no packets are shown the sender has not sent any weather packets the latest 10 day(s).
| Time | Temp. | Humidity | Pressure | Rain* | Wind** | Luminosity | Snow |
|---|---|---|---|---|---|---|---|
| 1777426631 | 11.11° C | 81% | 1027 hPa | 0 mm | - | 117 W/m² | - |
| 1777426327 | 11.11° C | 81% | 1027 hPa | 0 mm | - | 129 W/m² | - |
| 1777426022 | 11.11° C | 81% | 1027 hPa | 0 mm | - | 139 W/m² | - |
| 1777425717 | 11.11° C | 80% | 1027 hPa | 0 mm | - | 148 W/m² | - |
| 1777425412 | 11.11° C | 80% | 1026.9 hPa | 0 mm | - | 151 W/m² | - |
| 1777425109 | 11.11° C | 80% | 1027.1 hPa | 0 mm | - | 155 W/m² | - |
| 1777424805 | 11.11° C | 79% | 1027.2 hPa | 0 mm | - | 166 W/m² | - |
| 1777424500 | 11.11° C | 80% | 1027 hPa | 0 mm | - | 177 W/m² | - |
| 1777424196 | 11.11° C | 80% | 1027 hPa | 0 mm | - | 182 W/m² | - |
| 1777423894 | 11.11° C | 80% | 1027 hPa | 0 mm | - | 193 W/m² | - |
| 1777423591 | 10.56° C | 80% | 1027 hPa | 0 mm | - | 187 W/m² | - |
| 1777423286 | 10.56° C | 80% | 1027.1 hPa | 0 mm | - | 198 W/m² | - |
| 1777422981 | 11.11° C | 80% | 1027 hPa | 0 mm | - | 191 W/m² | - |
| 1777422676 | 10.56° C | 81% | 1027.1 hPa | 0 mm | - | 182 W/m² | - |
| 1777422371 | 10.56° C | 81% | 1027.1 hPa | 0 mm | - | 180 W/m² | - |
| 1777422066 | 10.56° C | 82% | 1027.1 hPa | 0 mm | - | 177 W/m² | - |
| 1777421761 | 10.56° C | 81% | 1027.1 hPa | 0 mm | - | 178 W/m² | - |
| 1777421456 | 10.56° C | 82% | 1026.8 hPa | 0 mm | - | 176 W/m² | - |
| 1777421153 | 10.56° C | 82% | 1027.1 hPa | 0 mm | - | 169 W/m² | - |
| 1777420850 | 10.56° C | 82% | 1026.9 hPa | 0 mm | - | 167 W/m² | - |
| 1777420545 | 10.56° C | 83% | 1027 hPa | 0 mm | - | 182 W/m² | - |
| 1777420242 | 10.56° C | 82% | 1027.1 hPa | 0 mm | - | 193 W/m² | - |
| 1777419937 | 10.56° C | 83% | 1026.9 hPa | 0 mm | - | 184 W/m² | - |
| 1777419635 | 10.56° C | 83% | 1026.9 hPa | 0 mm | - | 170 W/m² | - |
| 1777419333 | 10.56° C | 83% | 1026.8 hPa | 0 mm | - | 165 W/m² | - |
* Rain latest hour (hover to see other rain measurements)
** Current wind speed in m/s (hover to see current wind gust speed)